Regional Weather Roundup
Issued by NWS

Home | Current Version | Previous Version | Graphics & Text | Print | Product List | Glossary On
Versions: 1 2 3 4 5 6 7 8 9 10 11 12 13 14 15 16 17 18 19 20 21 22 23 24 25 26 27 28 29 30 31 32 33 34 35 36 37 38 39 40 41 42 43 44 45 46 47 48 49 50
000
ASUS43 KDTX 241010
RWRMI
MICHIGAN HOURLY REGIONAL WEATHER ROUNDUP
NATIONAL WEATHER SERVICE DETROIT/PONTIAC MI
ISSUED BY NATIONAL WEATHER SERVICE GRAND RAPIDS MI
600 AM EDT SAT JUN 24 2017

NOTE: "FAIR" INDICATES FEW OR NO CLOUDS BELOW 12,000 FEET WITH NO
SIGNIFICANT WEATHER AND/OR OBSTRUCTION TO VISIBILITY.

MIZ047>049-052>055-059>063-066>070-074>076-081>083-241100-
SOUTHEAST LOWER MICHIGAN

CITY           SKY/WX    TMP DP  RH WIND       PRES   REMARKS
ADRIAN         CLEAR     61  55  81 NW8       29.83R
ALMA           CLEAR     56  55  93 W6        29.81R
ANN ARBOR      CLEAR     60  55  83 W8        29.80R
BAD AXE        CLOUDY    57  55  93 CALM      29.77R
DETROIT CITY   CLEAR     63  55  75 W6        29.77R
DETROIT        PTCLDY    63  55  75 W10       29.79R
FLINT          CLEAR     59  55  87 W7        29.79R
GROSSE ILE     CLEAR     62  55  79 W6        29.78R
HILLSDALE      CLEAR     59  54  82 W8        29.83S
HOWELL         CLEAR     59  53  83 W6        29.80R

CITY           SKY/WX    TMP DP  RH WIND       PRES   REMARKS
JACKSON        CLEAR     59  54  83 W6        29.82R
LANSING        PTCLDY    62  54  74 W9        29.82R
MASON          CLEAR     60  56  85 W6        29.82R
MONROE         CLEAR     60  55  83 W6        29.79R
MT. CLEMENS    PTCLDY    63  55  74 W7        29.75R
PONTIAC        PTCLDY    61  56  83 W9        29.78R
PORT HOPE        N/A     59  52  77 W3        29.74R
PORT HURON     CLEAR     59  52  77 CALM      29.77R
TRI CITIES     CLEAR     58  57  97 W3        29.78R
YPSILANTI      CLEAR     64  56  75 W13       29.79R
$$
MIZ043>046-050>051-056>058-064>065-071>073-077>080-241100-
SOUTHWEST LOWER MICHIGAN

CITY           SKY/WX    TMP DP  RH WIND       PRES   REMARKS
BATTLE CREEK   CLEAR     59  55  87 W7        29.85R
BENTON HARBOR  CLEAR     65  56  72 W10       29.86R
BIG RAPIDS     CLEAR     56  52  87 W5        29.80R
COLDWATER      CLEAR     59  55  87 W6        29.84S
HOLLAND        CLEAR     63  56  78 NW8       29.84R
GRAND RAPIDS   PTCLDY    61  57  87 W9        29.83R
KALAMAZOO      CLEAR     61  54  77 W7        29.85R
MARSHALL       PTCLDY    59  56  90 W7        29.84R
MOUNT PLEASANT PTCLDY    58  54  84 W6        29.79R
MUSKEGON       PTCLDY    62  57  83 W8        29.83R
STURGIS        CLEAR     59  56  88 W5        29.85R
$$
MIZ016>042-241100-
NORTHERN LOWER MICHIGAN

CITY           SKY/WX    TMP DP  RH WIND       PRES   REMARKS
ALPENA         CLEAR     55  51  86 W6        29.74R
BEAVER ISLAND  CLEAR     48  48  99 W3        29.77R
BELLAIRE       PTCLDY    50  49  95 CALM      29.77R
CADILLAC       CLEAR     50  49  97 CALM      29.80R
CHARLEVOIX     CLEAR     56  55  95 SW5       29.79R
GAYLORD        PTCLDY    53  48  83 CALM      29.78R
HOUGHTON LAKE  CLEAR     53  51  93 NW5       29.79R
MANISTEE       PTCLDY    52  52 100 CALM      29.80R
OSCODA         CLEAR     53  50  92 W6        29.75R
PELLSTON       CLEAR     49  46  90 CALM      29.76R
TRAVERSE CITY  CLEAR     58  54  86 SW5       29.76R
LUDINGTON      CLOUDY    59  56  88 NW5       29.81R
$$
MIZ007>008-015-241100-
EASTERN UPPER MICHIGAN

CITY           SKY/WX    TMP DP  RH WIND       PRES   REMARKS
KINROSS        CLEAR     45  45 100 W3        29.74R
MACKINAC ISLAN CLEAR     52  52 100 W7        29.74R
NEWBERRY       CLEAR     46  46  97 W7        29.74R
S. S. MARIE    PTCLDY    49  46  90 W5        29.72R
$$
MIZ004>006-011>014-085-241100-
CENTRAL UPPER MICHIGAN

CITY           SKY/WX    TMP DP  RH WIND       PRES   REMARKS
MANISTIQUE     CLEAR     49  46  89 NW7       29.76R
ESCANABA       MOCLDY    53  49  86 W6        29.78R
MENOMINEE      CLOUDY    56  52  86 VRB3      29.81R
SAWYER-GWINN   CLEAR     47  46  93 CALM      29.79R
$$
MIZ001>003-009>011-084-241100-
WESTERN UPPER MICHIGAN

CITY           SKY/WX    TMP DP  RH WIND       PRES   REMARKS
IRON MOUNTAIN  MOCLDY    53  48  83 NW3       29.80R
HOUGHTON       CLOUDY    53  49  86 NW8       29.77R
COPPER HARBOR    N/A     53  50  89 CALM      29.77R
IRONWOOD       CLOUDY    55  51  86 W10       29.85R
$$

ABBREVIATIONS USED IN REMARKS
   TC - TEMPERATURE IN CELSIUS
  WCI - WIND CHILL INDEX
   HX - HEAT INDEX
  VSB - VISIBILITY




USA.gov is the U.S. government's official web portal to all federal, state and local government web resources and services.